Погода в Тигрицком

Россия / Красноярский край     53°35′36″N   92°25′02″E
темп.,
°C
ветер,
м/с
пор.,
м/с
влажн.,
%
обл.,
%
осадки,
мм/ч
давл.,
гПа
погр.,
м
21 января, чт
чт2101:00−24всв111000 0.0 103020
04:00−24всв111002 0.0 102920
07:00−22всв119633 0.0 102820
10:00−18всв1296100 0.3 1025109
13:00−15юв1294100 1.3 1022181
16:00−12вюв1295100 0.4 1020116
19:00−11вюв1196100 0.8 102038
22:00−10всв1196100 0.2 101924
22 января, пт
пт2201:00−9в129699 0.3 101730
04:00−10в2298100 0.0 101426
07:00−9вюв3690100 0.0 1011161
10:00−9юв2388100 0.0 100896
13:00−6ююв1381100 0.0 1006180
16:00−5ю3796100 0.2 1008270
19:00−5ююз2797100 0.7 1011271
22:00−5зсз2496100 0.4 1013129
23 января, сб
сб2301:00−6сз2497100 1.8 1015194
04:00−8сз2496100 1.8 1019173
07:00−9зюз2496100 3.2 1023227
10:00−11з61284100 1.1 1027619
13:00−11зюз61377100 1.1 1029716
16:00−12зюз5128099 0.0 1030515
19:00−16ююз228799 0.0 103220
22:00−17ююв118697 0.0 103420
24 января, вс
вс2401:00−17юв118498 0.0 103420
04:00−16вюв1185100 0.0 103420
07:00−16ююв1185100 0.0 103420
10:00−15ю1190100 0.0 103527
13:00−13ююз2385100 0.0 1033270
16:00−13юв1190100 0.0 103325
19:00−16в2290100 0.0 103424
22:00−16св1189100 0.0 103520
25 января, пн
пн2501:00−15з3795100 0.5 1036358
04:00−17з51195100 0.3 1038601
07:00−21зюз41186100 0.5 1040430
10:00−22зюз51084100 0.0 1043383
13:00−22з597694 0.0 1043802
16:00−23з378423 0.0 1044480
19:00−29юз128917 0.0 104719
22:00−30юз23901 0.0 104819